North Myrtle Beach, SC

2:55 AM EDT on June 29, 2017 (GMT -0400)
Grand Strand

Weather History for KCRE - October, 2013

Change the Weather History Date:

Wednesday, October 9, 2013

  Actual Average Record
Temperature  
Mean Temperature 65 °F 68 °F  
Max Temperature 72 °F 77 °F 89 °F (2007)
Min Temperature 57 °F 58 °F 41 °F (2000)
Degree Days  
Heating Degree Days 0 1  
Month to date heating degree days 0 9  
Since 1 July heating degree days 0 13  
Cooling Degree Days 0 4  
Month to date cooling degree days 50 46  
Year to date cooling degree days 1778 1830  
Growing Degree Days 14 (Base 50)    
Moisture  
Dew Point 57 °F    
Average Humidity 80    
Maximum Humidity 93    
Minimum Humidity 66    
Precipitation  
Precipitation 0.03 in 0.13 in 0.62 in (2006)
Month to date precipitation 0.42 1.28  
Year to date precipitation 42.54 42.91  
Sea Level Pressure  
Sea Level Pressure 30.03 in    
Wind  
Wind Speed 11 mph (North)    
Max Wind Speed 18 mph    
Max Gust Speed 28 mph    
Visibility 10 miles    
Events Rain    
T = Trace of Precipitation, MM = Missing Value Source: NWS Daily Summary

Daily Weather History Graph

Daily Weather History Graph

Search for Another Location

Airport or City:

Trip Planner

Search our weather history database for the weather conditions in past years. The results will help you decide how hot, cold, wet, or windy it might be!

Date:

Astronomy

Oct. 09, 2013 Rise Set
Actual Time 7:15 AM EDT 6:48 PM EDT
Civil Twilight 6:50 AM EDT 7:13 PM EDT
Nautical Twilight 6:21 AM EDT 7:42 PM EDT
Astronomical Twilight 5:52 AM EDT 8:10 PM EDT
Moon 11:58 AM EDT (10/9) 10:31 PM EDT (10/9)
Length of Visible Light 12h 22m
Length of Day
11h 32m
Waxing Crescent, 25% of the Moon is Illuminated
Oct 9
Waxing Crescent
Oct 11
First Quarter
Oct 18
Full
Oct 26
Last Quarter
Nov 3
New

Hourly Weather History & Observations

Time (EDT) Temp. Dew Point Humidity Pressure Visibility Wind Dir Wind Speed Gust Speed Precip Events Conditions
12:37 AM 57.2 °F 55.4 °F 94% 30.03 in 10.0 mi NNE 13.8 mph 21.9 mph 0.00 in   Overcast
12:50 AM 57.2 °F 55.4 °F 94% 30.03 in 10.0 mi North 11.5 mph - 0.00 in   Overcast
12:53 AM 57.0 °F 55.0 °F 93% 30.04 in 10.0 mi North 11.5 mph - 0.00 in   Overcast
1:53 AM 57.9 °F 55.0 °F 90% 30.04 in 10.0 mi North 10.4 mph 20.7 mph N/A   Overcast
2:53 AM 57.9 °F 55.0 °F 90% 30.04 in 10.0 mi North 9.2 mph 18.4 mph N/A   Overcast
3:53 AM 57.9 °F 55.0 °F 90% 30.03 in 10.0 mi North 12.7 mph - N/A   Overcast
4:53 AM 57.9 °F 55.9 °F 93% 30.02 in 10.0 mi North 9.2 mph 18.4 mph N/A   Overcast
5:53 AM 59.0 °F 55.0 °F 87% 30.03 in 10.0 mi North 11.5 mph 17.3 mph N/A   Overcast
6:53 AM 59.0 °F 55.0 °F 87% 30.04 in 10.0 mi North 9.2 mph 18.4 mph N/A   Overcast
7:35 AM 59.0 °F 55.4 °F 88% 30.04 in 10.0 mi North 9.2 mph - N/A   Overcast
7:48 AM 59.0 °F 55.4 °F 88% 30.05 in 10.0 mi North 10.4 mph 18.4 mph N/A   Overcast
7:53 AM 59.0 °F 55.0 °F 87% 30.05 in 10.0 mi North 10.4 mph - N/A   Overcast
8:30 AM 59.0 °F 55.4 °F 88% 30.06 in 10.0 mi North 9.2 mph 18.4 mph N/A   Overcast
8:37 AM 60.8 °F 55.4 °F 82% 30.06 in 10.0 mi North 8.1 mph 17.3 mph N/A   Overcast
8:53 AM 60.1 °F 55.9 °F 86% 30.06 in 10.0 mi North 10.4 mph 19.6 mph N/A   Mostly Cloudy
9:53 AM 62.1 °F 55.9 °F 80% 30.06 in 10.0 mi North 10.4 mph 19.6 mph N/A   Overcast
10:53 AM 64.0 °F 57.0 °F 78% 30.06 in 10.0 mi North 9.2 mph 17.3 mph N/A   Overcast
11:53 AM 68.0 °F 57.9 °F 70% 30.05 in 10.0 mi North 13.8 mph 21.9 mph N/A   Overcast
12:53 PM 70.0 °F 59.0 °F 68% 30.04 in 10.0 mi North 16.1 mph 21.9 mph N/A   Mostly Cloudy
1:53 PM 71.1 °F 59.0 °F 66% 30.03 in 10.0 mi North 10.4 mph 20.7 mph N/A   Overcast
2:18 PM 69.8 °F 59.0 °F 68% 30.02 in 10.0 mi NNW 9.2 mph 26.5 mph N/A   Mostly Cloudy
2:43 PM 69.8 °F 59.0 °F 68% 30.02 in 10.0 mi North 9.2 mph 23.0 mph N/A   Overcast
2:53 PM 69.1 °F 60.1 °F 73% 30.02 in 10.0 mi NNW 11.5 mph 21.9 mph N/A   Overcast
3:27 PM 64.4 °F 60.8 °F 88% 30.02 in 1.8 mi NNW 10.4 mph - 0.03 in Rain Rain
3:36 PM 64.4 °F 60.8 °F 88% 30.02 in 3.0 mi North 10.4 mph 18.4 mph 0.03 in Rain Light Rain
3:53 PM 64.0 °F 61.0 °F 90% 30.02 in 10.0 mi North 8.1 mph - 0.03 in   Overcast
4:36 PM 66.2 °F 59.0 °F 78% 30.01 in 10.0 mi NNW 12.7 mph 19.6 mph N/A   Mostly Cloudy
4:53 PM 66.9 °F 59.0 °F 76% 30.01 in 10.0 mi North 9.2 mph 21.9 mph N/A   Mostly Cloudy
5:53 PM 64.9 °F 57.9 °F 78% 30.02 in 10.0 mi North 11.5 mph 23.0 mph N/A   Overcast
6:53 PM 64.0 °F 57.0 °F 78% 30.01 in 10.0 mi North 10.4 mph 20.7 mph N/A   Overcast
7:53 PM 63.0 °F 57.0 °F 81% 30.02 in 10.0 mi North 10.4 mph 19.6 mph N/A   Overcast
8:15 PM 62.6 °F 55.4 °F 77% 30.01 in 10.0 mi North 9.2 mph 18.4 mph N/A   Overcast
8:34 PM 62.6 °F 55.4 °F 77% 30.02 in 10.0 mi NNW 11.5 mph 19.6 mph N/A   Overcast
8:53 PM 63.0 °F 55.9 °F 78% 30.02 in 10.0 mi NNW 10.4 mph 18.4 mph N/A   Overcast
9:53 PM 62.1 °F 55.9 °F 80% 30.03 in 10.0 mi North 11.5 mph 20.7 mph N/A   Overcast
10:53 PM 61.0 °F 55.0 °F 81% 30.02 in 10.0 mi North 10.4 mph - N/A   Overcast
11:53 PM 61.0 °F 55.0 °F 81% 30.01 in 10.0 mi North 10.4 mph 24.2 mph N/A   Overcast